Flag for Russia Weather past 2 weeks in Yekaterinburg, Russia

Now
57 °F

Broken clouds.


Feels Like: 54 °F
Forecast: 46 / 63 °F
Wind: 13 mph from Northwest

Location: Ekaterinburg

Current Time: Jul 28, 2014 at 6:46:26 PM

Latest Report: Jul 28, 2014 at 6:00 PM


Visibility: N/A

Pressure: 29.83 "Hg

Humidity: 82%

Dew point: 52 °F

Location of YekaterinburgLocation

Historic Weather in Yekaterinburg — Graph

°F

Yekaterinburg temperature yesterday

Maximum temperature yesterday: 59 °F (at 4:30 PM)
Minimum temperature yesterday: 46 °F (at 3:00 AM)
Average temperature yesterday: 51 °F

Past Weeks' High & Low Weather Summary

 TemperatureHumidityPressure
High79 °F (Jul 16, 3:30 PM)100% (Jul 13, 6:00 PM)30.01 "Hg (Jul 13, 6:00 PM)
Low37 °F (Jul 18, 5:00 AM)47% (Jul 15, 3:30 PM)29.21 "Hg (Jul 23, 5:00 AM)
Average54 °F88%29.71 "Hg
* Reported Jul 13 5:00 PM — Jul 28 5:30 PM, Yekaterinburg, Weather by CustomWeather, © 2014

Note: Actual official high and low records may vary slightly from our data, if they occured in-between our weather recording intervals... More about our weather records

Advertising

Yekaterinburg weather history for previous 24 hours

 ConditionsComfort  
Time TempWeatherWind HumidityBarometerVisibility
5:30 PM
Jul 28
55 °FMostly cloudy.10 mph88%29.83 "HgN/A
5:00 PM55 °FMostly cloudy.13 mph88%29.83 "HgN/A
4:30 PM54 °FMostly cloudy.8 mph94%29.83 "HgN/A
4:00 PM54 °FOvercast.13 mph94%29.83 "HgN/A
3:30 PM54 °FSprinkles. Overcast.10 mph94%29.80 "Hg4 mi
3:00 PM54 °FOvercast.6 mph94%29.80 "HgN/A
2:30 PM57 °FSprinkles. Overcast.13 mph77%29.80 "Hg4 mi
2:00 PM55 °FMostly cloudy.13 mph82%29.80 "HgN/A
1:30 PM57 °FMostly cloudy.10 mph82%29.80 "HgN/A
1:00 PM55 °FMostly cloudy.10 mph88%29.80 "HgN/A
12:30 PM55 °FMostly cloudy.13 mph88%29.80 "HgN/A
12:00 PM54 °FSprinkles. Cloudy.8 mph94%29.80 "HgN/A
11:30 AM54 °FSprinkles. Mostly cloudy.13 mph94%29.80 "HgN/A
11:00 AM52 °FSprinkles. Mostly cloudy.10 mph100%29.80 "HgN/A
10:30 AM52 °FSprinkles. Overcast.10 mph100%29.80 "HgN/A
10:00 AM52 °FSprinkles. Overcast.13 mph100%29.77 "HgN/A
9:30 AM52 °FOvercast.13 mph100%29.77 "HgN/A
9:00 AM52 °FSprinkles. Overcast.8 mph100%29.77 "HgN/A
8:30 AM52 °FSprinkles. Overcast.10 mph100%29.77 "HgN/A
8:00 AM52 °FOvercast.13 mph100%29.77 "HgN/A
7:30 AM52 °FMostly cloudy.10 mph100%29.77 "HgN/A
7:00 AM52 °FMostly cloudy.10 mph100%29.77 "HgN/A
6:30 AM50 °FMostly cloudy.8 mph100%29.77 "HgN/A
6:00 AM50 °FOvercast.6 mph100%29.77 "HgN/A
5:30 AM52 °FMostly cloudy.8 mph94%29.77 "HgN/A
5:00 AM50 °FMostly cloudy.8 mph100%29.77 "HgN/A
4:30 AM50 °FMostly cloudy.6 mph100%29.77 "HgN/A
4:00 AM50 °FMostly cloudy.6 mph100%29.77 "HgN/A
3:30 AM50 °FOvercast.6 mph100%29.77 "HgN/A
3:00 AM50 °FOvercast.6 mph100%29.77 "HgN/A
2:30 AM52 °FSprinkles. Overcast.8 mph100%29.77 "HgN/A
2:00 AM52 °FOvercast.6 mph94%29.77 "HgN/A
1:30 AM52 °FOvercast.8 mph100%29.77 "HgN/A
1:00 AM50 °FMostly cloudy.6 mph100%29.77 "HgN/A
12:30 AM52 °FMostly cloudy.6 mph94%29.77 "HgN/A
12:00 AM52 °FMostly cloudy.8 mph94%29.77 "HgN/A
11:30 PM
Jul 27
52 °FMostly cloudy.6 mph100%29.77 "HgN/A
11:00 PM52 °FMostly cloudy.6 mph100%29.77 "HgN/A
10:30 PM52 °FMostly cloudy.6 mph94%29.77 "HgN/A
10:00 PM52 °FBroken clouds.8 mph100%29.77 "HgN/A
9:30 PM52 °FBroken clouds.8 mph94%29.77 "HgN/A
9:00 PM54 °FPartly sunny.10 mph88%29.77 "HgN/A
8:30 PM54 °FBroken clouds.10 mph88%29.74 "HgN/A
8:00 PM54 °FBroken clouds.8 mph94%29.74 "HgN/A
7:30 PM54 °FSprinkles. Partly sunny.8 mph88%29.74 "HgN/A
7:00 PM57 °FPartly sunny.13 mph77%29.74 "HgN/A
6:30 PM57 °FBroken clouds.10 mph72%29.74 "HgN/A
6:00 PM55 °FBroken clouds.13 mph82%29.74 "HgN/A
Weather by CustomWeather, © 2014

See weather overviewHow to use our weather pages